| time (UTC) | temp F | wind direction | speed MPH | gust MPH | rain 1hr in | rain 24hr in | rain mn in | humidity % | barometer mb |
| 20260507032230 | 45 | 7 | 0.0 | 1.0 | 0.00 | 0.46 | 0.00 | 93 | 1011.6 |
| 20260507031228 | 45 | 7 | 0.0 | 1.0 | 0.00 | 0.48 | 0.00 | 93 | 1011.5 |
| 20260507030224 | 45 | 1 | 0.0 | 1.0 | 0.00 | 0.49 | 0.00 | 93 | 1011.5 |
| 20260507025220 | 45 | 356 | 0.0 | 1.0 | 0.00 | 0.51 | 0.00 | 93 | 1011.4 |
| 20260507024217 | 45 | 357 | 0.0 | 1.0 | 0.00 | 0.52 | 0.00 | 93 | 1011.4 |
| 20260507023239 | 45 | 355 | 0.0 | 1.0 | 0.00 | 0.54 | 0.00 | 93 | 1011.4 |
| 20260507022231 | 45 | 0.0 | 0.0 | 0.00 | 0.55 | 0.00 | 93 | 1011.4 | |
| 20260507021228 | 45 | 342 | 0.0 | 1.0 | 0.00 | 0.56 | 0.00 | 94 | 1011.4 |
| 20260507020225 | 45 | 0.0 | 0.0 | 0.00 | 0.58 | 0.00 | 94 | 1011.3 | |
| 20260507015224 | 45 | 0.0 | 0.0 | 0.00 | 0.60 | 0.00 | 94 | 1011.3 | |
| 20260507014219 | 45 | 306 | 0.0 | 1.0 | 0.00 | 0.61 | 0.00 | 94 | 1011.2 |
| 20260507013216 | 45 | 314 | 0.0 | 1.0 | 0.00 | 0.63 | 0.00 | 94 | 1011.1 |
| 20260507012233 | 45 | 0.0 | 0.0 | 0.00 | 0.65 | 0.00 | 94 | 1011.0 | |
| 20260507011230 | 45 | 0.0 | 0.0 | 0.00 | 0.67 | 0.00 | 94 | 1010.9 | |
| 20260507010231 | 44 | 0.0 | 0.0 | 0.00 | 0.69 | 0.00 | 94 | 1010.9 | |
| 20260507005223 | 44 | 0.0 | 0.0 | 0.00 | 0.70 | 0.00 | 94 | 1010.9 | |
| 20260507004220 | 44 | 0.0 | 0.0 | 0.00 | 0.72 | 0.00 | 93 | 1010.9 | |
| 20260507003217 | 43 | 0.0 | 0.0 | 0.00 | 0.73 | 0.00 | 93 | 1010.9 | |
| 20260507002234 | 44 | 0.0 | 0.0 | 0.00 | 0.75 | 0.00 | 92 | 1010.9 | |
| 20260507001231 | 44 | 0.0 | 0.0 | 0.00 | 0.77 | 0.00 | 92 | 1010.8 | |
| 20260507000227 | 45 | 0.0 | 0.0 | 0.00 | 0.78 | 0.00 | 91 | 1010.6 | |
| 20260506235224 | 45 | 348 | 0.0 | 1.0 | 0.00 | 0.79 | 0.00 | 91 | 1010.7 |
| 20260506234222 | 46 | 0.0 | 0.0 | 0.00 | 0.80 | 0.00 | 90 | 1010.7 | |
| 20260506233218 | 46 | 0.0 | 0.0 | 0.00 | 0.81 | 0.00 | 90 | 1010.7 | |
| 20260506232235 | 46 | 0.0 | 0.0 | 0.00 | 0.82 | 0.00 | 90 | 1010.6 | |
| 20260506231236 | 46 | 0.0 | 0.0 | 0.00 | 0.83 | 0.00 | 90 | 1010.6 | |
| 20260506230234 | 46 | 0.0 | 0.0 | 0.00 | 0.84 | 0.00 | 88 | 1010.5 | |
| 20260506225225 | 47 | 0.0 | 0.0 | 0.00 | 0.85 | 0.00 | 87 | 1010.5 | |
| 20260506224222 | 47 | 330 | 0.0 | 1.0 | 0.00 | 0.87 | 0.00 | 87 | 1010.6 |
| 20260506223219 | 47 | 0.0 | 0.0 | 0.00 | 0.87 | 0.00 | 86 | 1010.5 | |
| 20260506222216 | 47 | 350 | 0.0 | 1.0 | 0.00 | 0.87 | 0.00 | 86 | 1010.4 |
| 20260506221233 | 47 | 357 | 0.0 | 1.0 | 0.00 | 0.87 | 0.00 | 86 | 1010.4 |
| 20260506220229 | 47 | 345 | 0.0 | 1.0 | 0.00 | 0.87 | 0.87 | 86 | 1010.4 |
| 20260506215227 | 47 | 345 | 0.0 | 1.0 | 0.00 | 0.87 | 0.87 | 86 | 1010.3 |
| 20260506214224 | 47 | 350 | 0.0 | 1.0 | 0.00 | 0.88 | 0.87 | 87 | 1010.2 |
| 20260506213220 | 47 | 1 | 0.0 | 1.0 | 0.00 | 0.88 | 0.87 | 88 | 1010.2 |
| 20260506212217 | 46 | 0.0 | 0.0 | 0.00 | 0.88 | 0.87 | 89 | 1010.3 | |
| 20260506211234 | 46 | 0.0 | 0.0 | 0.00 | 0.88 | 0.87 | 90 | 1010.1 | |
| 20260506210231 | 46 | 0.0 | 0.0 | 0.00 | 0.88 | 0.87 | 89 | 1010.2 | |
| 20260506205228 | 47 | 0.0 | 0.0 | 0.00 | 0.88 | 0.87 | 87 | 1010.1 | |
| 20260506204224 | 47 | 357 | 0.0 | 1.0 | 0.00 | 0.88 | 0.87 | 86 | 1010.1 |
| 20260506203221 | 47 | 356 | 0.0 | 1.0 | 0.00 | 0.88 | 0.87 | 87 | 1009.9 |
| 20260506202218 | 47 | 353 | 0.0 | 3.0 | 0.00 | 0.88 | 0.87 | 88 | 1009.9 |
| 20260506201235 | 47 | 0.0 | 0.0 | 0.00 | 0.88 | 0.87 | 88 | 1009.9 | |
| 20260506200231 | 47 | 0.0 | 0.0 | 0.00 | 0.88 | 0.87 | 88 | 1009.9 | |
| 20260506195230 | 47 | 0.0 | 0.0 | 0.00 | 0.88 | 0.87 | 86 | 1009.7 | |
| 20260506194225 | 47 | 344 | 1.0 | 1.0 | 0.00 | 0.88 | 0.87 | 86 | 1009.7 |
| 20260506193222 | 47 | 359 | 0.0 | 2.0 | 0.00 | 0.88 | 0.87 | 87 | 1009.6 |
| 20260506192218 | 47 | 0.0 | 0.0 | 0.00 | 0.88 | 0.87 | 88 | 1009.5 | |
| 20260506191236 | 47 | 352 | 1.0 | 2.0 | 0.00 | 0.88 | 0.87 | 88 | 1009.2 |
| 20260506190232 | 47 | 355 | 0.0 | 1.0 | 0.00 | 0.88 | 0.87 | 89 | 1009.2 |
| 20260506185228 | 47 | 351 | 0.0 | 1.0 | 0.00 | 0.88 | 0.87 | 89 | 1009.2 |
| 20260506184225 | 47 | 0.0 | 0.0 | 0.00 | 0.88 | 0.87 | 89 | 1009.2 | |
| 20260506183221 | 47 | 0.0 | 0.0 | 0.00 | 0.88 | 0.87 | 89 | 1009.0 | |
| 20260506182218 | 48 | 337 | 0.0 | 1.0 | 0.00 | 0.88 | 0.87 | 90 | 1008.9 |
| 20260506181235 | 48 | 358 | 0.0 | 1.0 | 0.00 | 0.88 | 0.87 | 89 | 1008.8 |
| 20260506180231 | 48 | 354 | 0.0 | 3.0 | 0.00 | 0.88 | 0.87 | 89 | 1008.7 |
| 20260506175228 | 47 | 293 | 0.0 | 2.0 | 0.00 | 0.88 | 0.87 | 89 | 1008.6 |
| 20260506174226 | 48 | 340 | 1.0 | 4.0 | 0.00 | 0.88 | 0.87 | 88 | 1008.5 |
| 20260506173222 | 47 | 325 | 1.0 | 3.0 | 0.00 | 0.88 | 0.87 | 88 | 1008.5 |
| 20260506172218 | 47 | 341 | 1.0 | 3.0 | 0.00 | 0.88 | 0.87 | 89 | 1008.5 |
| 20260506171242 | 47 | 299 | 1.0 | 3.0 | 0.00 | 0.88 | 0.87 | 90 | 1008.4 |
| 20260506170232 | 47 | 355 | 1.0 | 2.0 | 0.00 | 0.88 | 0.87 | 90 | 1008.4 |
| 20260506165228 | 47 | 317 | 0.0 | 3.0 | 0.00 | 0.88 | 0.87 | 90 | 1008.3 |
| 20260506164225 | 47 | 332 | 1.0 | 2.0 | 0.00 | 0.88 | 0.87 | 89 | 1008.3 |
| 20260506163222 | 47 | 316 | 1.0 | 3.0 | 0.00 | 0.88 | 0.87 | 90 | 1008.3 |
| 20260506162218 | 47 | 340 | 1.0 | 3.0 | 0.00 | 0.88 | 0.87 | 90 | 1008.3 |
| 20260506161235 | 47 | 276 | 1.0 | 4.0 | 0.00 | 0.88 | 0.87 | 91 | 1008.4 |
| 20260506160232 | 47 | 325 | 1.0 | 2.0 | 0.00 | 0.88 | 0.87 | 92 | 1008.3 |
| 20260506155228 | 47 | 333 | 0.0 | 3.0 | 0.00 | 0.88 | 0.87 | 92 | 1008.1 |
| 20260506154225 | 47 | 11 | 1.0 | 3.0 | 0.00 | 0.88 | 0.87 | 93 | 1008.2 |
| 20260506153222 | 47 | 258 | 1.0 | 4.0 | 0.00 | 0.88 | 0.87 | 93 | 1008.0 |
| 20260506152218 | 48 | 322 | 1.0 | 2.0 | 0.00 | 0.88 | 0.87 | 94 | 1007.9 |
| 20260506151235 | 48 | 333 | 1.0 | 3.0 | 0.00 | 0.88 | 0.87 | 94 | 1007.8 |
| 20260506150233 | 48 | 298 | 1.0 | 3.0 | 0.00 | 0.88 | 0.87 | 95 | 1007.7 |
| 20260506145229 | 48 | 318 | 1.0 | 3.0 | 0.00 | 0.88 | 0.87 | 95 | 1007.7 |
| 20260506144225 | 48 | 324 | 0.0 | 2.0 | 0.00 | 0.88 | 0.87 | 96 | 1007.6 |
| 20260506143223 | 47 | 328 | 0.0 | 1.0 | 0.01 | 0.88 | 0.87 | 96 | 1007.6 |
| 20260506142218 | 47 | 0.0 | 0.0 | 0.02 | 0.88 | 0.87 | 96 | 1007.7 | |
| 20260506141235 | 47 | 333 | 0.0 | 2.0 | 0.03 | 0.88 | 0.87 | 96 | 1007.7 |
| 20260506140232 | 47 | 318 | 0.0 | 2.0 | 0.04 | 0.88 | 0.87 | 95 | 1007.7 |
| 20260506135229 | 48 | 334 | 0.0 | 2.0 | 0.04 | 0.88 | 0.87 | 95 | 1007.6 |
| 20260506134227 | 48 | 317 | 1.0 | 2.0 | 0.05 | 0.88 | 0.87 | 95 | 1007.6 |
| 20260506133222 | 48 | 341 | 1.0 | 2.0 | 0.04 | 0.87 | 0.86 | 95 | 1007.5 |
| 20260506132219 | 48 | 312 | 1.0 | 3.0 | 0.04 | 0.86 | 0.85 | 94 | 1007.6 |
| 20260506131215 | 48 | 353 | 1.0 | 2.0 | 0.03 | 0.85 | 0.84 | 94 | 1007.6 |
| 20260506130232 | 48 | 331 | 1.0 | 4.0 | 0.02 | 0.84 | 0.83 | 94 | 1007.5 |
| 20260506125229 | 47 | 331 | 1.0 | 3.0 | 0.02 | 0.84 | 0.83 | 94 | 1007.3 |
| 20260506124225 | 47 | 321 | 1.0 | 2.0 | 0.01 | 0.83 | 0.82 | 94 | 1007.3 |
| 20260506123222 | 48 | 342 | 1.0 | 3.0 | 0.02 | 0.83 | 0.82 | 94 | 1007.2 |
| 20260506122219 | 48 | 352 | 0.0 | 1.0 | 0.01 | 0.82 | 0.81 | 95 | 1007.2 |
| 20260506121216 | 48 | 357 | 0.0 | 2.0 | 0.02 | 0.82 | 0.81 | 95 | 1007.1 |
| 20260506120233 | 48 | 332 | 0.0 | 2.0 | 0.02 | 0.82 | 0.81 | 95 | 1007.1 |
| 20260506115229 | 48 | 343 | 0.0 | 2.0 | 0.03 | 0.82 | 0.81 | 95 | 1007.0 |
| 20260506114225 | 48 | 347 | 1.0 | 2.0 | 0.03 | 0.82 | 0.81 | 94 | 1007.0 |
| 20260506113216 | 47 | 0.0 | 0.0 | 0.02 | 0.81 | 0.80 | 95 | 1007.1 | |
| 20260506112218 | 47 | 327 | 1.0 | 3.0 | 0.03 | 0.81 | 0.80 | 94 | 1007.0 |
| 20260506111235 | 47 | 333 | 1.0 | 2.0 | 0.02 | 0.80 | 0.79 | 94 | 1007.1 |
| 20260506110231 | 47 | 289 | 1.0 | 6.0 | 0.02 | 0.80 | 0.79 | 94 | 1006.9 |
| 20260506105230 | 47 | 326 | 1.0 | 2.0 | 0.01 | 0.79 | 0.78 | 94 | 1006.9 |
| 20260506104225 | 46 | 353 | 1.0 | 6.0 | 0.01 | 0.79 | 0.78 | 95 | 1006.8 |
| 20260506103222 | 46 | 319 | 1.0 | 3.0 | 0.01 | 0.79 | 0.78 | 95 | 1006.8 |
| 20260506102218 | 46 | 329 | 0.0 | 2.0 | 0.00 | 0.78 | 0.77 | 95 | 1006.8 |
| 20260506101237 | 46 | 308 | 1.0 | 4.0 | 0.00 | 0.78 | 0.77 | 95 | 1006.6 |
| 20260506100232 | 46 | 313 | 1.0 | 4.0 | 0.00 | 0.78 | 0.77 | 95 | 1006.6 |
| 20260506095228 | 46 | 343 | 1.0 | 2.0 | 0.00 | 0.78 | 0.77 | 95 | 1006.6 |
| 20260506094226 | 45 | 314 | 1.0 | 4.0 | 0.01 | 0.78 | 0.77 | 95 | 1006.5 |
| 20260506093222 | 45 | 317 | 1.0 | 3.0 | 0.01 | 0.78 | 0.77 | 96 | 1006.5 |
| 20260506092218 | 45 | 330 | 1.0 | 3.0 | 0.01 | 0.78 | 0.77 | 96 | 1006.4 |
| 20260506091235 | 45 | 343 | 1.0 | 4.0 | 0.01 | 0.78 | 0.77 | 96 | 1006.4 |
| 20260506090231 | 45 | 346 | 1.0 | 3.0 | 0.02 | 0.78 | 0.77 | 96 | 1006.2 |
| 20260506085228 | 45 | 349 | 1.0 | 4.0 | 0.02 | 0.78 | 0.77 | 96 | 1006.3 |
| 20260506084225 | 45 | 320 | 1.0 | 4.0 | 0.02 | 0.77 | 0.76 | 96 | 1006.2 |
| 20260506083221 | 45 | 319 | 1.0 | 6.0 | 0.03 | 0.77 | 0.76 | 96 | 1006.2 |
| 20260506082218 | 45 | 317 | 1.0 | 4.0 | 0.04 | 0.77 | 0.76 | 97 | 1006.1 |
| 20260506081235 | 45 | 331 | 1.0 | 2.0 | 0.05 | 0.77 | 0.76 | 97 | 1006.0 |
| 20260506080232 | 45 | 331 | 0.0 | 4.0 | 0.05 | 0.76 | 0.75 | 97 | 1006.0 |
| 20260506073221 | 46 | 323 | 1.0 | 4.0 | 0.05 | 0.74 | 0.73 | 97 | 1005.9 |
| 20260506072218 | 46 | 330 | 0.0 | 3.0 | 0.05 | 0.73 | 0.72 | 97 | 1005.8 |
| 20260506071234 | 46 | 344 | 1.0 | 3.0 | 0.05 | 0.72 | 0.71 | 97 | 1005.8 |
| 20260506070232 | 46 | 310 | 1.0 | 2.0 | 0.05 | 0.71 | 0.70 | 97 | 1005.8 |
| 20260506062218 | 46 | 345 | 1.0 | 3.0 | 0.06 | 0.68 | 0.67 | 97 | 1005.4 |
| 20260506061235 | 47 | 310 | 0.0 | 3.0 | 0.07 | 0.67 | 0.66 | 97 | 1005.3 |
| 20260506060231 | 47 | 357 | 1.0 | 2.0 | 0.08 | 0.66 | 0.65 | 97 | 1005.3 |
| 20260506051233 | 48 | 329 | 1.0 | 2.0 | 0.11 | 0.62 | 0.59 | 97 | 1005.2 |
| 20260506050230 | 48 | 294 | 1.0 | 2.0 | 0.11 | 0.60 | 0.57 | 97 | 1005.2 |
| 20260506044223 | 48 | 353 | 1.0 | 2.0 | 0.10 | 0.57 | 0.53 | 98 | 1005.2 |
| 20260506043220 | 48 | 359 | 1.0 | 3.0 | 0.10 | 0.56 | 0.52 | 98 | 1005.2 |
| 20260506042217 | 48 | 360 | 0.0 | 1.0 | 0.09 | 0.54 | 0.50 | 97 | 1005.2 |
| 20260506041234 | 48 | 342 | 0.0 | 2.0 | 0.09 | 0.52 | 0.48 | 97 | 1005.3 |
| 20260506040230 | 48 | 305 | 0.0 | 2.0 | 0.08 | 0.51 | 0.46 | 97 | 1005.3 |
| 20260506035227 | 48 | 334 | 1.0 | 3.0 | 0.09 | 0.50 | 0.45 | 97 | 1005.2 |
| 20260506034224 | 48 | 329 | 1.0 | 3.0 | 0.08 | 0.48 | 0.43 | 97 | 1005.3 |
| 20260506033220 | 48 | 286 | 0.0 | 2.0 | 0.09 | 0.47 | 0.42 | 97 | 1005.4 |